These data are preliminary and have not undergone final quality control by the National Climatic Data Center (NCDC). Therefore, these data are subject to revision. Final and certified climate data can be accessed at the NCDC - http://www.ncdc.noaa.gov.

Regional Weather Roundup


000
ASUS46 KPQR 110710
RWROR

OREGON REGIONAL WEATHER ROUNDUP
NATIONAL WEATHER SERVICE PORTLAND OR
1200 AM PDT SUN APR 11 2021

NOTE: "FAIR" INDICATES FEW OR NO CLOUDS BELOW 12,000 FEET WITH
NO SIGNIFICANT WEATHER AND/OR OBSTRUCTIONS TO VISIBILITY.

ORZ001>013-110800-
NORTHWEST OREGON


CITY           SKY/WX    TMP DP  RH WIND       PRES   REMARKS
ASTORIA        MOCLDY    36  31  82 S6        30.37S
TILLAMOOK      PTCLDY    32  32 100 CALM      30.40S
NEWPORT        CLEAR     34  32  93 CALM      30.38F
FLORENCE       FAIR      35  32  88 CALM      30.34F
PORTLAND       CLEAR     40  30  67 NW7       30.36R
VANCOUVER WA   CLEAR     41  28  60 CALM      30.35S
SCAPPOOSE      CLEAR     40  29  64 N6        30.35S
HILLSBORO      CLEAR     35  30  82 W6        30.35S
AURORA         CLEAR     38  29  70 N5        30.36S
MCMINNVILLE    CLEAR     35  30  82 CALM      30.35S
SALEM          CLEAR     36  27  69 N7        30.34S
CORVALLIS      CLEAR     39  31  72 NW7       30.35S
EUGENE         MOCLDY    37  30  75 N6        30.33S
CRESWELL       CLOUDY    39  32  75 N8        30.31S

ORZ021-028-110800- SOUTHWEST OREGON CITY SKY/WX TMP DP RH WIND PRES REMARKS NORTH BEND CLEAR 41 33 73 N9 30.35S BROOKINGS CLEAR 46 34 62 VRB3 30.17R ROSEBURG CLEAR 42 27 55 CALM 30.28S SEXTON SUMMIT CLEAR 28 26 92 N9 30.14F GRANTS PASS FAIR 43 30 61 N6 30.25S MEDFORD CLEAR 40 30 67 MISG 30.21S
ORZ014>016-041-110800- COLUMBIA GORGE CITY SKY/WX TMP DP RH WIND PRES REMARKS TROUTDALE CLEAR 42 29 59 VRB3 30.35S HOOD RIVER CLEAR 36 30 80 MISG 30.31R THE DALLES CLEAR 41 27 57 W5 30.30R
ORZ029>031-041-044-049-050-061>064-502-503-505>511-110800- EASTERN OREGON CITY SKY/WX TMP DP RH WIND PRES REMARKS MADRAS CLOUDY 32 25 74 NW6 30.25S REDMOND CLOUDY 36 22 56 NE7 30.21S BEND CLOUDY 34 23 64 CALM 30.22S PRINEVILLE CLOUDY 34 21 60 N8 30.21S KLAMATH FALLS CLEAR 32 23 69 N3 30.11R LAKEVIEW PTCLDY 31 21 66 N18 30.11R WCI 19 HERMISTON MOCLDY 36 25 64 SW6 30.28R PENDLETON CLOUDY 36 25 64 W8 30.24S JOHN DAY PTCLDY 31 20 62 CALM 30.19S MEACHAM CLOUDY 31 20 63 CALM 30.16R LA GRANDE MOCLDY 33 19 56 W10 30.20R WCI 25 BAKER CITY CLOUDY 31 18 58 NW12 30.17S WCI 22 BURNS MOCLDY 32 14 47 N10 30.16R WCI 24 ROME N/A 33 16 49 NE8 30.12R ONTARIO CLEAR 38 18 44 N14G20 30.17R WCI 30
OTHER REGIONAL REPORTS CITY SKY/WX TMP DP RH WIND PRES REMARKS SEATTLE MOCLDY 43 29 57 NE8 30.34R SPOKANE CLEAR 29 13 51 W8 30.14R VANCOUVER BC CLEAR 37 28 70 NE6 30.33R PRINCE GEORGE CLOUDY 34 21 60 W6 30.15S DAWSON CREEK CLEAR 21 12 68 SE8 30.12F WHITEHORSE CLEAR -8 -15 71 SW5 30.24R BOISE CLEAR 36 16 44 NW16 30.07S WCI 26 REDDING CLEAR 53 41 63 N6 29.93R SAN FRANCISCO CLEAR 51 43 74 W13 29.99F